Regional Weather Roundup
Issued by NWS

Home | Current Version | Previous Version | Graphics & Text | Print | Product List | Glossary On
Versions: 1 2 3 4 5 6 7 8 9 10 11 12 13 14 15 16 17 18 19 20 21 22 23 24 25 26 27 28 29 30 31 32 33 34 35 36 37 38 39 40 41 42 43 44 45 46 47 48 49 50
000
ASUS43 KDTX 292301
RWRMI
NATIONAL WEATHER SERVICE DETROIT/PONTIAC MI
700 PM EDT WED OCT 29 2014

NOTE: "FAIR" INDICATES FEW OR NO CLOUDS BELOW 12,000 FEET WITH NO
SIGNIFICANT WEATHER AND/OR OBSTRUCTION TO VISIBILITY.

MIZ047>049-052>055-059>063-066>070-074>076-081>083-300000-
SOUTHEAST LOWER MICHIGAN

CITY           SKY/WX    TMP DP  RH WIND       PRES   REMARKS
ADRIAN         CLOUDY    44  37  76 NW9       30.06R
ALMA           CLOUDY    46  36  68 W10G16    30.04R
ANN ARBOR      PTCLDY    43  33  68 W8        30.03R
BAD AXE        CLOUDY    46  38  72 W7        29.99R
CARO           CLOUDY    46  36  67 W6        30.00R
DETROIT CITY   CLOUDY    49  35  58 W7        30.03R
DETROIT        MOCLDY    47  35  63 W8        30.04R
FLINT          CLOUDY    48  35  60 W10       30.03R
GROSSE ILE     CLOUDY    46  37  71 W6        30.03R
HILLSDALE      RAIN      43  42  95 NW7       30.06R
HOWELL         MOCLDY    44  35  70 W8        30.03R

CITY           SKY/WX    TMP DP  RH WIND       PRES   REMARKS
JACKSON        PTCLDY    41  36  82 W6        30.05R
LAMBERTVILLE   CLOUDY    46  37  71 W7        30.06R
LANSING        MOCLDY    44  35  70 W7        30.05R
LAPEER         CLOUDY    45  35  67 W7        30.01R
MASON          CLOUDY    45  35  68 W9        30.04R
MONROE         CLOUDY    46  39  76 W6        30.03R
MT. CLEMENS    CLOUDY    47  35  63 W10       29.99R
PONTIAC        MOCLDY    44  33  65 W8        30.01R
PORT HOPE        N/A     46  38  73 W8        29.96R
PORT HURON     CLOUDY    46  36  66 W3        30.01R
TRI CITIES     MOCLDY    48  36  63 NW7       30.02R
TROY           CLOUDY    48  33  56 W8        30.04R
SAGINAW HB     CLOUDY    46  34  61 W7        30.01R
$$
MIZ043>046-050>051-056>058-064>065-071>073-077>080-300000-
SOUTHWEST LOWER MICHIGAN

CITY           SKY/WX    TMP DP  RH WIND       PRES   REMARKS
BATTLE CREEK   CLOUDY    44  37  76 W8        30.07R
BENTON HARBOR  CLOUDY    46  32  58 NW10      30.10R
BIG RAPIDS     MOCLDY    41  39  93 CALM      30.05R
COLDWATER      LGT RAIN  44  39  85 W7        30.07R
FREMONT        MOCLDY    43  35  72 NW7       30.07R
HOLLAND        CLOUDY    48  36  63 N5        30.08R
GRAND RAPIDS   MOCLDY    46  37  71 NW12      30.06R
IONIA          CLOUDY    46  36  67 NW8       30.04R
KALAMAZOO      CLOUDY    45  37  73 W6        30.08R
LUDINGTON      DRIZZLE   42  38  88 N3        30.07S
MARSHALL       CLOUDY    41  38  89 W6        30.06R
MOUNT PLEASANT MOCLDY    45  35  69 W5        30.03R
MUSKEGON       CLOUDY    46  35  65 N7        30.08R
SOUTH HAVEN    CLOUDY    47  37  66 NW7       30.09R
$$
MIZ016>042-300000-
NORTHERN LOWER MICHIGAN

CITY           SKY/WX    TMP DP  RH WIND       PRES   REMARKS
ALPENA         MOCLDY    43  34  70 NW14G21   29.99R
BEAVER ISLAND  CLOUDY    42  36  77 N7        30.04R
BELLAIRE       CLOUDY    44  35  71 NW6       30.04R
CADILLAC       MOCLDY    39  35  86 NW10      30.03R WCI  32
CHARLEVOIX     MOCLDY    42  34  71 NW12      30.06R
FRANKFORT      CLOUDY    45  37  73 CALM      30.06R
GAYLORD        LGT RAIN  38  36  92 NW6       30.01R WCI  33
GRAYLING       CLOUDY    40  35  84 NW14      30.02R WCI  32
HARBOR SPRINGS MOCLDY    40  35  80 NW6       30.03R
HOUGHTON LAKE  MOCLDY    41  35  79 NW10      30.02R
MANISTEE       MOCLDY    45  34  65 N5        30.07R
OSCODA         PTCLDY    43  35  71 NW10      29.98R
PELLSTON       MOCLDY    41  35  79 NW12      30.03R
ROGERS CITY    MOCLDY    41  36  81 NW8G18    30.00R
TRAVERSE CITY  CLOUDY    45  36  70 N8        30.04R
$$
MIZ007>008-015-300000-
EASTERN UPPER MICHIGAN

CITY           SKY/WX    TMP DP  RH WIND       PRES   REMARKS
KINROSS        MOCLDY    37  36  93 W14G28    30.00R WCI  29
MACKINAC ISLAN PTCLDY    39  33  77 NW14      30.01R WCI  31
NEWBERRY       MOCLDY    37  33  88 NW8       30.02R WCI  30
S. S. MARIE    MOCLDY    39  32  76 NW12      29.98R WCI  32
MUNISING         N/A     42  36  79 N9        30.05R
$$
MIZ004>006-011>014-085-300000-
CENTRAL UPPER MICHIGAN

CITY           SKY/WX    TMP DP  RH WIND       PRES   REMARKS
MANISTIQUE     CLOUDY    39  34  80 NW8       30.05R WCI  34
ESCANABA       CLOUDY    45  30  57 CALM      30.05R
MENOMINEE      MOCLDY    46  32  57 NW3       30.05R
SAWYER-GWINN   CLOUDY    39  32  75 N5        30.04R
$$
MIZ001>003-009>011-084-300000-
WESTERN UPPER MICHIGAN

CITY           SKY/WX    TMP DP  RH WIND       PRES   REMARKS
IRON MOUNTAIN  MOCLDY    43  32  65 NW8       30.04R
HOUGHTON       CLOUDY    40  31  70 MISG      30.03S
COPPER HARBOR    N/A     42  33  70 N9        30.03S
IRONWOOD       CLOUDY    41  36  81 W6        30.03S
$$

ABBREVIATIONS USED IN REMARKS
   TC - TEMPERATURE IN CELSIUS
  WCI - WIND CHILL INDEX
   HX - HEAT INDEX
  VSB - VISIBILITY




USA.gov is the U.S. government's official web portal to all federal, state and local government web resources and services.